Weather History for Osaka Airport, Japan

Change the Weather History Date:

Wednesday, June 12, 2013

  Actual Average Record
Temperature  
Mean Temperature 82 °F -  
Max Temperature 89 °F 83 °F 89 °F (2013)
Min Temperature 75 °F 68 °F 60 °F (1998)
Cooling Degree Days 17    
Growing Degree Days 32 (Base 50)    
Moisture  
Dew Point 63 °F    
Average Humidity 48    
Maximum Humidity 69    
Minimum Humidity 40    
Precipitation  
Precipitation 0.00 in - - ()
Sea Level Pressure  
Sea Level Pressure 29.78 in    
Wind  
Wind Speed 14 mph ()    
Max Wind Speed 21 mph    
Max Gust Speed 31 mph    
Visibility 6.2 miles    
Events      
Averages and records for this station are not official NWS values.
T = Trace of Precipitation, MM = Missing Value Source: Averaged Metar Reports

Daily Weather History Graph

Daily Weather History Graph

Search for Another Location

Airport:

Trip Planner

Search our weather history database for the weather conditions in past years. The results will help you decide how hot, cold, wet, or windy it might be!

Date:

Astronomy

Jun. 12, 2013 Rise Set
Actual Time 4:44 AM JST 7:11 PM JST
Civil Twilight 4:14 AM JST 7:41 PM JST
Nautical Twilight 3:38 AM JST 8:17 PM JST
Astronomical Twilight 2:58 AM JST 8:57 PM JST
Moon 7:42 AM JST (6/12) 9:34 PM JST (6/12)
Length of Visible Light 15h 26m
Length of Day
14h 27m
Waxing Crescent, 11% of the Moon is Illuminated
Jun 12
Waxing Crescent
Jun 17
First Quarter
Jun 23
Full
Jun 30
Last Quarter
Jul 8
New

Hourly Weather History & Observations

Time (JST) Temp. Heat Index Dew Point Humidity Pressure Visibility Wind Dir Wind Speed Gust Speed Precip Events Conditions
5:00 AM 75.2 °F - 64.4 °F 69% 29.80 in 6.2 mi ENE 17.3 mph 29.9 mph N/A   Scattered Clouds
6:00 AM 77.0 °F - 62.6 °F 61% 29.80 in 6.2 mi ENE 13.8 mph - N/A   Partly Cloudy
7:00 AM 78.8 °F - 62.6 °F 57% 29.80 in 6.2 mi ENE 11.5 mph - N/A   Mostly Cloudy
8:00 AM 78.8 °F - 62.6 °F 57% 29.80 in 6.2 mi East 18.4 mph - N/A   Mostly Cloudy
9:00 AM 82.4 °F 83.4 °F 62.6 °F 51% 29.80 in 6.2 mi East 16.1 mph - N/A   Scattered Clouds
9:33 AM 84.2 °F 85.0 °F 62.6 °F 48% 29.80 in 6.2 mi East 18.4 mph 29.9 mph N/A   Mostly Cloudy
10:00 AM 84.2 °F 85.0 °F 62.6 °F 48% 29.80 in 6.2 mi East 19.6 mph - N/A   Scattered Clouds
10:28 AM 86.0 °F 86.6 °F 62.6 °F 45% 29.80 in 6.2 mi East 19.6 mph 31.1 mph N/A   Scattered Clouds
11:00 AM 86.0 °F 86.6 °F 62.6 °F 45% 29.80 in 6.2 mi East 20.7 mph - N/A   Mostly Cloudy
11:28 AM 87.8 °F 88.5 °F 62.6 °F 43% 29.80 in 6.2 mi East 18.4 mph 31.1 mph N/A   Mostly Cloudy
12:00 PM 87.8 °F 88.5 °F 62.6 °F 43% 29.80 in 6.2 mi ENE 17.3 mph - N/A   Scattered Clouds
12:17 PM 87.8 °F 89.4 °F 64.4 °F 46% 29.80 in 6.2 mi East 17.3 mph 28.8 mph N/A   Scattered Clouds
1:00 PM 87.8 °F 89.4 °F 64.4 °F 46% 29.77 in 6.2 mi ENE 16.1 mph - N/A   Scattered Clouds
1:19 PM 87.8 °F 89.4 °F 64.4 °F 46% 29.77 in 6.2 mi East 18.4 mph 29.9 mph N/A   Partly Cloudy
2:00 PM 89.6 °F 90.1 °F 62.6 °F 40% 29.77 in 6.2 mi East 16.1 mph - N/A   Scattered Clouds
3:00 PM 89.6 °F 90.1 °F 62.6 °F 40% 29.77 in 6.2 mi East 15.0 mph - N/A   Scattered Clouds
4:00 PM 87.8 °F 87.6 °F 60.8 °F 40% 29.74 in 6.2 mi East 16.1 mph - N/A   Partly Cloudy
5:00 PM 87.8 °F 87.6 °F 60.8 °F 40% 29.74 in 6.2 mi East 18.4 mph - N/A   Partly Cloudy
6:00 PM 87.8 °F 87.6 °F 60.8 °F 40% 29.74 in 6.2 mi East 12.7 mph - N/A   Partly Cloudy
7:00 PM 86.0 °F 86.6 °F 62.6 °F 45% 29.77 in 6.2 mi ESE 12.7 mph - N/A   Partly Cloudy
8:00 PM 84.2 °F 85.0 °F 62.6 °F 48% 29.80 in 6.2 mi ESE 11.5 mph - N/A   Partly Cloudy